Time,TemperatureF,DewpointF,PressureIn,WindDirection,WindDirectionDegrees,WindSpeedMPH,WindSpeedGustMPH,Humidity,HourlyPrecipIn,Conditions,Clouds,dailyrainin,SoftwareType,DateUTC
2013-01-29 00:01:00,70.0,64.0,29.87,SSW,199,2.0,15.0,80,0.00,,,0.00,,2013-01-29 06:01:00,
2013-01-29 00:11:00,70.0,64.0,29.87,SSW,199,2.0,15.0,80,0.00,,,0.00,,2013-01-29 06:11:00,
2013-01-29 00:21:00,70.0,64.0,29.86,SSE,155,3.0,13.0,81,0.00,,,0.00,,2013-01-29 06:21:00,
2013-01-29 00:32:00,70.0,64.0,29.86,SSW,197,3.0,12.0,82,0.00,,,0.00,,2013-01-29 06:32:00,
2013-01-29 00:41:00,70.0,64.0,29.86,SSW,197,3.0,12.0,82,0.00,,,0.00,,2013-01-29 06:41:00,
2013-01-29 00:52:00,70.0,65.0,29.87,SSW,193,2.0,7.0,83,0.00,,,0.00,,2013-01-29 06:52:00,
2013-01-29 01:01:00,70.0,65.0,29.86,South,183,3.0,12.0,83,0.00,,,0.00,,2013-01-29 07:01:00,
2013-01-29 01:11:00,70.0,65.0,29.86,South,183,3.0,12.0,83,0.00,,,0.00,,2013-01-29 07:11:00,
2013-01-29 01:21:00,69.0,64.0,29.86,SSE,153,3.0,13.0,84,0.00,,,0.00,,2013-01-29 07:21:00,
2013-01-29 01:31:00,69.0,64.0,29.84,South,176,3.0,12.0,85,0.00,,,0.00,,2013-01-29 07:31:00,
2013-01-29 01:41:00,69.0,64.0,29.84,South,176,3.0,12.0,85,0.00,,,0.00,,2013-01-29 07:41:00,
2013-01-29 01:52:00,69.0,65.0,29.83,South,172,3.0,17.0,86,0.00,,,0.00,,2013-01-29 07:52:00,
2013-01-29 02:02:00,69.0,65.0,29.83,South,169,2.0,12.0,87,0.00,,,0.00,,2013-01-29 08:02:00,
2013-01-29 02:11:00,69.0,65.0,29.83,South,169,2.0,12.0,87,0.00,,,0.00,,2013-01-29 08:11:00,
2013-01-29 02:21:00,69.0,65.0,29.82,South,170,2.0,10.0,87,0.00,,,0.00,,2013-01-29 08:21:00,
2013-01-29 02:31:00,68.0,64.0,29.81,SSE,161,4.0,13.0,88,0.00,,,0.00,,2013-01-29 08:31:00,
2013-01-29 02:41:00,68.0,64.0,29.81,SSE,161,4.0,13.0,88,0.00,,,0.00,,2013-01-29 08:41:00,
2013-01-29 02:52:00,68.0,64.0,29.80,SSE,166,2.0,14.0,88,0.00,,,0.00,,2013-01-29 08:52:00,
2013-01-29 03:01:00,68.0,64.0,29.80,South,173,2.0,12.0,88,0.00,,,0.00,,2013-01-29 09:01:00,
2013-01-29 03:11:00,68.0,64.0,29.80,South,173,2.0,12.0,88,0.00,,,0.00,,2013-01-29 09:11:00,
2013-01-29 03:21:00,68.0,64.0,29.80,SSW,199,1.0,6.0,88,0.00,,,0.00,,2013-01-29 09:21:00,
2013-01-29 03:31:00,68.0,64.0,29.80,South,188,3.0,12.0,88,0.00,,,0.00,,2013-01-29 09:31:00,
2013-01-29 03:42:00,68.0,64.0,29.80,South,188,3.0,12.0,88,0.00,,,0.00,,2013-01-29 09:42:00,
2013-01-29 03:51:00,68.0,64.0,29.79,South,186,2.0,7.0,88,0.00,,,0.00,,2013-01-29 09:51:00,
2013-01-29 04:01:00,68.0,64.0,29.79,SSW,196,3.0,10.0,88,0.00,,,0.00,,2013-01-29 10:01:00,
2013-01-29 04:11:00,68.0,64.0,29.79,SSW,196,3.0,10.0,88,0.00,,,0.00,,2013-01-29 10:11:00,
2013-01-29 04:21:00,68.0,64.0,29.78,SSE,164,2.0,12.0,88,0.00,,,0.00,,2013-01-29 10:21:00,
2013-01-29 04:32:00,68.0,64.0,29.77,SSE,164,2.0,10.0,88,0.00,,,0.00,,2013-01-29 10:32:00,
2013-01-29 04:41:00,68.0,64.0,29.77,SSE,164,2.0,10.0,88,0.00,,,0.00,,2013-01-29 10:41:00,
2013-01-29 04:52:00,69.0,65.0,29.77,South,169,3.0,12.0,88,0.00,,,0.00,,2013-01-29 10:52:00,
2013-01-29 05:01:00,69.0,65.0,29.76,South,171,3.0,10.0,88,0.00,,,0.00,,2013-01-29 11:01:00,
2013-01-29 05:11:00,69.0,65.0,29.76,South,171,3.0,10.0,88,0.00,,,0.00,,2013-01-29 11:11:00,
2013-01-29 05:21:00,69.0,65.0,29.75,South,182,3.0,9.0,88,0.00,,,0.00,,2013-01-29 11:21:00,
2013-01-29 05:32:00,69.0,65.0,29.75,South,176,3.0,10.0,88,0.00,,,0.00,,2013-01-29 11:32:00,
2013-01-29 05:42:00,69.0,65.0,29.75,South,176,3.0,10.0,88,0.00,,,0.00,,2013-01-29 11:42:00,
2013-01-29 05:52:00,69.0,65.0,29.75,SSE,168,3.0,13.0,87,0.00,,,0.00,,2013-01-29 11:52:00,
2013-01-29 06:02:00,69.0,65.0,29.74,South,181,5.0,12.0,86,0.00,,,0.00,,2013-01-29 12:02:00,
2013-01-29 06:12:00,69.0,65.0,29.74,South,181,5.0,12.0,86,0.00,,,0.00,,2013-01-29 12:12:00,
2013-01-29 06:22:00,70.0,66.0,29.74,South,188,4.0,12.0,86,0.00,,,0.00,,2013-01-29 12:22:00,
2013-01-29 06:32:00,70.0,65.0,29.74,South,176,5.0,12.0,85,0.00,,,0.00,,2013-01-29 12:32:00,
2013-01-29 06:43:00,70.0,65.0,29.74,South,176,5.0,12.0,85,0.00,,,0.00,,2013-01-29 12:43:00,
2013-01-29 06:52:00,70.0,65.0,29.73,SSW,195,3.0,15.0,85,0.00,,,0.00,,2013-01-29 12:52:00,
2013-01-29 07:02:00,70.0,65.0,29.73,SSE,155,3.0,12.0,85,0.00,,,0.00,,2013-01-29 13:02:00,
2013-01-29 07:12:00,70.0,65.0,29.73,SSE,155,3.0,12.0,85,0.00,,,0.00,,2013-01-29 13:12:00,
2013-01-29 07:22:00,70.0,65.0,29.72,SSW,192,5.0,12.0,85,0.00,,,0.00,,2013-01-29 13:22:00,
2013-01-29 07:32:00,70.0,65.0,29.72,South,181,5.0,13.0,85,0.00,,,0.00,,2013-01-29 13:32:00,
2013-01-29 07:42:00,70.0,65.0,29.72,South,181,5.0,13.0,85,0.00,,,0.00,,2013-01-29 13:42:00,
2013-01-29 07:52:00,70.0,65.0,29.71,South,186,5.0,15.0,85,0.00,,,0.00,,2013-01-29 13:52:00,
2013-01-29 08:02:00,70.0,65.0,29.70,SSE,168,5.0,12.0,85,0.00,,,0.00,,2013-01-29 14:02:00,
2013-01-29 08:12:00,70.0,65.0,29.70,SSW,199,5.0,17.0,85,0.00,,,0.00,,2013-01-29 14:12:00,
2013-01-29 08:22:00,70.0,65.0,29.70,SSW,199,5.0,17.0,85,0.00,,,0.00,,2013-01-29 14:22:00,
2013-01-29 08:33:00,70.0,65.0,29.70,SSE,168,4.0,12.0,84,0.00,,,0.00,,2013-01-29 14:33:00,
2013-01-29 08:43:00,70.0,65.0,29.70,SSE,168,4.0,12.0,84,0.00,,,0.00,,2013-01-29 14:43:00,
2013-01-29 08:52:00,70.0,65.0,29.70,South,188,5.0,15.0,84,0.00,,,0.00,,2013-01-29 14:52:00,
2013-01-29 09:02:00,70.0,65.0,29.70,SSW,195,3.0,12.0,84,0.00,,,0.00,,2013-01-29 15:02:00,
2013-01-29 09:12:00,70.0,65.0,29.70,SSW,195,3.0,12.0,84,0.00,,,0.00,,2013-01-29 15:12:00,
2013-01-29 09:22:00,70.0,65.0,29.70,South,187,4.0,12.0,84,0.00,,,0.00,,2013-01-29 15:22:00,
2013-01-29 09:33:00,70.0,65.0,29.69,South,191,3.0,14.0,84,0.00,,,0.00,,2013-01-29 15:33:00,
2013-01-29 09:42:00,70.0,65.0,29.69,South,191,3.0,14.0,84,0.00,,,0.00,,2013-01-29 15:42:00,
2013-01-29 09:52:00,70.0,65.0,29.69,SSW,201,5.0,18.0,84,0.00,,,0.00,,2013-01-29 15:52:00,
2013-01-29 10:02:00,70.0,65.0,29.69,SSW,196,5.0,12.0,84,0.00,,,0.00,,2013-01-29 16:02:00,
2013-01-29 10:12:00,70.0,65.0,29.69,SSW,196,5.0,12.0,84,0.00,,,0.00,,2013-01-29 16:12:00,
2013-01-29 10:22:00,71.0,66.0,29.69,SSW,200,3.0,13.0,84,0.00,,,0.00,,2013-01-29 16:22:00,
2013-01-29 10:32:00,70.0,65.0,29.69,SSW,194,2.0,10.0,85,0.01,,,0.01,,2013-01-29 16:32:00,
2013-01-29 10:42:00,70.0,65.0,29.69,SSW,194,2.0,10.0,85,0.01,,,0.01,,2013-01-29 16:42:00,
2013-01-29 10:52:00,70.0,65.0,29.68,SW,214,2.0,12.0,85,0.01,,,0.01,,2013-01-29 16:52:00,
2013-01-29 11:03:00,70.0,65.0,29.66,SSW,193,4.0,12.0,85,0.01,,,0.01,,2013-01-29 17:03:00,
2013-01-29 11:12:00,70.0,65.0,29.66,SSW,193,4.0,12.0,85,0.01,,,0.01,,2013-01-29 17:12:00,
2013-01-29 11:21:00,70.0,65.0,29.66,SSW,201,3.0,18.0,85,0.01,,,0.01,,2013-01-29 17:21:00,
2013-01-29 11:32:00,71.0,66.0,29.64,SSW,204,3.0,9.0,84,0.00,,,0.01,,2013-01-29 17:32:00,
2013-01-29 11:42:00,71.0,66.0,29.64,SSW,204,3.0,9.0,84,0.00,,,0.01,,2013-01-29 17:42:00,
2013-01-29 11:52:00,71.0,66.0,29.62,South,177,3.0,12.0,83,0.00,,,0.01,,2013-01-29 17:52:00,
2013-01-29 12:03:00,72.0,65.0,29.61,South,173,3.0,12.0,80,0.00,,,0.01,,2013-01-29 18:03:00,
2013-01-29 12:12:00,72.0,65.0,29.61,South,173,3.0,12.0,80,0.00,,,0.01,,2013-01-29 18:12:00,
2013-01-29 12:22:00,72.0,65.0,29.60,SSW,208,2.0,12.0,79,0.00,,,0.01,,2013-01-29 18:22:00,
2013-01-29 12:33:00,73.0,66.0,29.59,SSW,197,5.0,12.0,78,0.00,,,0.01,,2013-01-29 18:33:00,
2013-01-29 12:42:00,73.0,66.0,29.59,SSW,197,5.0,12.0,78,0.00,,,0.01,,2013-01-29 18:42:00,
2013-01-29 12:51:00,73.0,66.0,29.59,SSW,197,5.0,12.0,78,0.00,,,0.01,,2013-01-29 18:51:00,
2013-01-29 13:02:00,73.0,65.0,29.57,SSW,202,5.0,13.0,77,0.00,,,0.01,,2013-01-29 19:02:00,
2013-01-29 13:12:00,73.0,65.0,29.57,SSW,202,5.0,13.0,77,0.00,,,0.01,,2013-01-29 19:12:00,
2013-01-29 13:22:00,74.0,66.0,29.56,SW,220,6.0,15.0,76,0.00,,,0.01,,2013-01-29 19:22:00,
2013-01-29 13:32:00,75.0,66.0,29.53,SSW,207,5.0,12.0,73,0.00,,,0.01,,2013-01-29 19:32:00,
2013-01-29 13:42:00,75.0,66.0,29.53,SSW,207,5.0,12.0,73,0.00,,,0.01,,2013-01-29 19:42:00,
2013-01-29 13:52:00,75.0,66.0,29.53,SW,220,5.0,12.0,73,0.00,,,0.01,,2013-01-29 19:52:00,
2013-01-29 14:02:00,76.0,66.0,29.51,SW,227,5.0,15.0,71,0.00,,,0.01,,2013-01-29 20:02:00,
2013-01-29 14:12:00,76.0,66.0,29.51,SW,227,5.0,15.0,71,0.00,,,0.01,,2013-01-29 20:12:00,
2013-01-29 14:22:00,76.0,65.0,29.50,SSW,196,5.0,14.0,70,0.00,,,0.01,,2013-01-29 20:22:00,
2013-01-29 14:33:00,78.0,66.0,29.49,SSW,193,5.0,14.0,67,0.00,,,0.01,,2013-01-29 20:33:00,
2013-01-29 14:42:00,78.0,66.0,29.49,SSW,193,5.0,14.0,67,0.00,,,0.01,,2013-01-29 20:42:00,
2013-01-29 14:53:00,77.0,65.0,29.48,SSW,213,5.0,12.0,67,0.00,,,0.01,,2013-01-29 20:53:00,
2013-01-29 15:02:00,78.0,65.0,29.47,SW,223,2.0,10.0,65,0.00,,,0.01,,2013-01-29 21:02:00,
2013-01-29 15:12:00,78.0,65.0,29.47,SW,223,2.0,10.0,65,0.00,,,0.01,,2013-01-29 21:12:00,
2013-01-29 15:22:00,78.0,64.0,29.47,SW,227,5.0,14.0,63,0.00,,,0.01,,2013-01-29 21:22:00,
2013-01-29 15:33:00,78.0,65.0,29.47,West,281,3.0,10.0,64,0.00,,,0.01,,2013-01-29 21:33:00,
2013-01-29 15:42:00,78.0,65.0,29.47,West,281,3.0,10.0,64,0.00,,,0.01,,2013-01-29 21:42:00,
2013-01-29 15:53:00,77.0,63.0,29.47,SSW,212,5.0,10.0,63,0.00,,,0.01,,2013-01-29 21:53:00,
2013-01-29 16:02:00,78.0,64.0,29.50,West,264,4.0,18.0,62,0.00,,,0.01,,2013-01-29 22:02:00,
2013-01-29 16:12:00,78.0,64.0,29.50,West,264,4.0,18.0,62,0.00,,,0.01,,2013-01-29 22:12:00,
2013-01-29 16:22:00,69.0,55.0,29.52,West,281,12.0,26.0,60,0.00,,,0.01,,2013-01-29 22:22:00,
2013-01-29 16:33:00,60.0,55.0,29.54,WNW,290,7.0,15.0,83,0.16,,,0.17,,2013-01-29 22:33:00,
2013-01-29 16:42:00,60.0,55.0,29.54,WNW,290,7.0,15.0,83,0.16,,,0.17,,2013-01-29 22:42:00,
2013-01-29 16:52:00,59.0,55.0,29.56,WNW,282,6.0,13.0,87,0.18,,,0.19,,2013-01-29 22:52:00,
2013-01-29 17:02:00,58.0,55.0,29.59,WNW,284,5.0,13.0,90,0.20,,,0.21,,2013-01-29 23:02:00,
2013-01-29 17:12:00,58.0,55.0,29.59,WNW,284,5.0,13.0,90,0.20,,,0.21,,2013-01-29 23:12:00,
2013-01-29 17:22:00,58.0,55.0,29.58,WNW,287,5.0,9.0,90,0.20,,,0.21,,2013-01-29 23:22:00,
2013-01-29 17:32:00,58.0,55.0,29.58,West,281,4.0,12.0,90,0.04,,,0.21,,2013-01-29 23:32:00,
2013-01-29 17:42:00,58.0,55.0,29.58,West,281,4.0,12.0,90,0.04,,,0.21,,2013-01-29 23:42:00,
2013-01-29 17:52:00,58.0,55.0,29.59,WNW,285,5.0,9.0,91,0.02,,,0.21,,2013-01-29 23:52:00,
2013-01-29 18:02:00,58.0,55.0,29.60,West,281,6.0,13.0,90,0.00,,,0.21,,2013-01-30 00:02:00,
2013-01-29 18:12:00,58.0,55.0,29.60,West,281,6.0,13.0,90,0.00,,,0.21,,2013-01-30 00:12:00,
2013-01-29 18:22:00,58.0,55.0,29.62,WNW,286,13.0,22.0,90,0.00,,,0.21,,2013-01-30 00:22:00,
2013-01-29 18:32:00,58.0,49.0,29.62,WNW,287,11.0,25.0,73,0.00,,,0.21,,2013-01-30 00:32:00,
2013-01-29 18:42:00,58.0,49.0,29.62,WNW,287,11.0,25.0,73,0.00,,,0.21,,2013-01-30 00:42:00,
2013-01-29 18:53:00,58.0,49.0,29.65,WNW,285,12.0,20.0,71,0.00,,,0.21,,2013-01-30 00:53:00,
2013-01-29 19:02:00,57.0,47.0,29.63,NW,305,6.0,18.0,70,0.00,,,0.21,,2013-01-30 01:02:00,
2013-01-29 19:12:00,57.0,47.0,29.63,NW,305,6.0,18.0,70,0.00,,,0.21,,2013-01-30 01:12:00,
2013-01-29 19:22:00,57.0,47.0,29.64,WNW,290,3.0,12.0,70,0.00,,,0.21,,2013-01-30 01:22:00,
2013-01-29 19:32:00,57.0,48.0,29.62,WNW,298,3.0,13.0,71,0.00,,,0.21,,2013-01-30 01:32:00,
2013-01-29 19:42:00,57.0,48.0,29.62,WNW,298,3.0,13.0,71,0.00,,,0.21,,2013-01-30 01:42:00,
2013-01-29 19:52:00,56.0,47.0,29.64,West,279,3.0,13.0,71,0.00,,,0.21,,2013-01-30 01:52:00,
2013-01-29 20:02:00,56.0,47.0,29.64,North,0,0.0,3.0,73,0.00,,,0.21,,2013-01-30 02:02:00,
2013-01-29 20:12:00,56.0,47.0,29.64,North,0,0.0,3.0,73,0.00,,,0.21,,2013-01-30 02:12:00,
2013-01-29 20:21:00,56.0,48.0,29.65,SSE,159,0.0,3.0,74,0.00,,,0.21,,2013-01-30 02:21:00,
2013-01-29 20:33:00,55.0,47.0,29.66,WNW,298,0.0,1.0,75,0.00,,,0.21,,2013-01-30 02:33:00,
2013-01-29 20:42:00,55.0,47.0,29.66,WNW,298,0.0,1.0,75,0.00,,,0.21,,2013-01-30 02:42:00,
2013-01-29 20:52:00,55.0,48.0,29.66,WNW,298,0.0,2.0,76,0.00,,,0.21,,2013-01-30 02:52:00,
2013-01-29 21:03:00,55.0,47.0,29.69,WNW,294,1.0,5.0,75,0.00,,,0.21,,2013-01-30 03:03:00,
2013-01-29 21:11:00,55.0,47.0,29.69,WNW,294,1.0,5.0,75,0.00,,,0.21,,2013-01-30 03:11:00,
2013-01-29 21:22:00,55.0,45.0,29.70,WNW,290,2.0,10.0,70,0.00,,,0.21,,2013-01-30 03:22:00,
2013-01-29 21:32:00,56.0,45.0,29.70,WNW,294,1.0,3.0,67,0.00,,,0.21,,2013-01-30 03:32:00,
2013-01-29 21:42:00,56.0,45.0,29.70,WNW,294,1.0,3.0,67,0.00,,,0.21,,2013-01-30 03:42:00,
2013-01-29 21:51:00,56.0,46.0,29.70,WNW,290,1.0,3.0,68,0.00,,,0.21,,2013-01-30 03:51:00,
2013-01-29 22:02:00,55.0,43.0,29.70,WNW,283,1.0,5.0,63,0.00,,,0.21,,2013-01-30 04:02:00,
2013-01-29 22:11:00,55.0,43.0,29.70,WNW,283,1.0,5.0,63,0.00,,,0.21,,2013-01-30 04:11:00,
2013-01-29 22:22:00,55.0,41.0,29.70,WNW,287,1.0,6.0,60,0.00,,,0.21,,2013-01-30 04:22:00,
2013-01-29 22:32:00,55.0,41.0,29.71,West,261,0.0,3.0,58,0.00,,,0.21,,2013-01-30 04:32:00,
2013-01-29 22:41:00,55.0,41.0,29.71,West,261,0.0,3.0,58,0.00,,,0.21,,2013-01-30 04:41:00,
2013-01-29 22:52:00,55.0,39.0,29.72,West,278,2.0,9.0,55,0.00,,,0.21,,2013-01-30 04:52:00,
2013-01-29 23:03:00,55.0,36.0,29.72,West,274,6.0,14.0,49,0.01,,,0.22,,2013-01-30 05:03:00,
2013-01-29 23:12:00,55.0,36.0,29.72,West,274,6.0,14.0,49,0.01,,,0.22,,2013-01-30 05:12:00,
2013-01-29 23:22:00,55.0,37.0,29.73,WNW,284,4.0,12.0,50,0.01,,,0.22,,2013-01-30 05:22:00,
2013-01-29 23:32:00,55.0,36.0,29.72,WNW,285,5.0,14.0,49,0.01,,,0.22,,2013-01-30 05:32:00,
2013-01-29 23:43:00,55.0,36.0,29.72,WNW,285,5.0,14.0,49,0.01,,,0.22,,2013-01-30 05:43:00,
2013-01-29 23:52:00,54.0,35.0,29.74,West,275,5.0,12.0,49,0.01,,,0.22,,2013-01-30 05:52:00,